• în România
  • Lista ţărilor
  • Pe 7 zile
  • Temperatura apei
  • Hartă satelitară
  • Meteo pe hartă
  • Widget-uri
  • user-avatar
    Intrare

    Meteo pe oră la Coro

    Astăzi, 17 August, Vineri

    Timp Temperatura Precipitaţii Vânt Presiune Umiditate
    00:00 +28°C° 0 mm 6 m/s 758 mmHg 83%
    01:00 +28°C° 0 mm 6 m/s 758 mmHg 83%
    02:00 +28°C° 0 mm 6 m/s 757 mmHg 84%
    03:00 +27°C° 0 mm 6 m/s 757 mmHg 85%
    04:00 +27°C° 0 mm 6 m/s 757 mmHg 86%
    05:00 +28°C° 0 mm 6 m/s 757 mmHg 82%
    06:00 +29°C° 0 mm 6 m/s 757 mmHg 78%
    07:00 +29°C° 0 mm 6 m/s 758 mmHg 75%
    08:00 +33°C° 0 mm 6 m/s 758 mmHg 64%
    09:00 +35°C° 0 mm 7 m/s 758 mmHg 54%
    10:00 +38°C° 0 mm 7 m/s 758 mmHg 44%
    11:00 +39°C° 0 mm 7 m/s 757 mmHg 40%
    12:00 +40°C° 0 mm 8 m/s 756 mmHg 37%
    13:00 +43°C° 0 mm 8 m/s 756 mmHg 33%
    14:00 +41°C° 0 mm 8 m/s 755 mmHg 35%
    15:00 +40°C° 0 mm 9 m/s 755 mmHg 37%
    16:00 +40°C° 0 mm 9 m/s 754 mmHg 39%
    17:00 +37°C° 0 mm 9 m/s 755 mmHg 49%
    18:00 +34°C° 0 mm 8 m/s 756 mmHg 58%
    19:00 +32°C° 0 mm 8 m/s 756 mmHg 68%
    20:00 +31°C° 0 mm 8 m/s 757 mmHg 73%
    21:00 +29°C° 0 mm 7 m/s 757 mmHg 77%
    22:00 +29°C° 0 mm 7 m/s 758 mmHg 82%
    23:00 +28°C° 0 mm 7 m/s 757 mmHg 82%

    Mâine, 18 August, Sâmbătă

    Timp Temperatura Precipitaţii Vânt Presiune Umiditate
    00:00 +28°C° 0 mm 6 m/s 757 mmHg 82%
    01:00 +28°C° 0 mm 6 m/s 756 mmHg 83%
    02:00 +28°C° 0 mm 6 m/s 756 mmHg 84%
    03:00 +28°C° 0 mm 6 m/s 756 mmHg 86%
    04:00 +27°C° 0 mm 5 m/s 756 mmHg 88%
    05:00 +28°C° 0 mm 6 m/s 756 mmHg 83%
    06:00 +29°C° 0 mm 6 m/s 756 mmHg 79%
    07:00 +29°C° 0 mm 6 m/s 756 mmHg 75%
    08:00 +32°C° 0 mm 6 m/s 757 mmHg 64%
    09:00 +35°C° 0 mm 6 m/s 757 mmHg 54%
    10:00 +38°C° 0 mm 6 m/s 757 mmHg 44%
    11:00 +39°C° 0 mm 7 m/s 756 mmHg 41%
    12:00 +40°C° 0 mm 7 m/s 755 mmHg 37%
    13:00 +41°C° 0 mm 8 m/s 755 mmHg 34%
    14:00 +40°C° 0 mm 8 m/s 754 mmHg 35%
    15:00 +40°C° 0 mm 8 m/s 754 mmHg 36%
    16:00 +39°C° 0 mm 8 m/s 753 mmHg 38%
    17:00 +37°C° 0 mm 8 m/s 754 mmHg 45%
    18:00 +34°C° 0 mm 8 m/s 754 mmHg 53%
    19:00 +33°C° 0 mm 8 m/s 755 mmHg 60%
    20:00 +30°C° 0 mm 7 m/s 755 mmHg 67%
    21:00 +29°C° 0 mm 7 m/s 756 mmHg 75%
    22:00 +28°C° 0 mm 7 m/s 756 mmHg 82%
    23:00 +28°C° 0 mm 7 m/s 756 mmHg 83%

    Poimâine, 19 August, Duminică

    Timp Temperatura Precipitaţii Vânt Presiune Umiditate
    00:00 +28°C° 0 mm 7 m/s 755 mmHg 84%
    01:00 +28°C° 0 mm 6 m/s 755 mmHg 85%
    02:00 +27°C° 0 mm 6 m/s 755 mmHg 85%
    03:00 +27°C° 0 mm 6 m/s 755 mmHg 85%
    04:00 +27°C° 0 mm 6 m/s 755 mmHg 85%
    05:00 +28°C° 0 mm 6 m/s 755 mmHg 81%
    06:00 +28°C° 0 mm 6 m/s 756 mmHg 77%
    07:00 +29°C° 0 mm 6 m/s 756 mmHg 74%
    08:00 +32°C° 0 mm 6 m/s 756 mmHg 63%
    09:00 +35°C° 0 mm 6 m/s 756 mmHg 52%
    10:00 +38°C° 0 mm 6 m/s 757 mmHg 42%
    11:00 +39°C° 0 mm 6 m/s 756 mmHg 38%
    12:00 +40°C° 0 mm 7 m/s 755 mmHg 34%
    13:00 +43°C° 0 mm 7 m/s 754 mmHg 31%
    14:00 +41°C° 0 mm 8 m/s 754 mmHg 32%
    15:00 +41°C° 0 mm 8 m/s 754 mmHg 33%
    16:00 +41°C° 0 mm 8 m/s 753 mmHg 34%
    17:00 +39°C° 0 mm 8 m/s 754 mmHg 40%
    18:00 +37°C° 0 mm 8 m/s 754 mmHg 46%
    19:00 +34°C° 0 mm 7 m/s 755 mmHg 52%
    20:00 +33°C° 0 mm 7 m/s 755 mmHg 57%
    21:00 +32°C° 0 mm 7 m/s 756 mmHg 62%
    22:00 +30°C° 0 mm 6 m/s 756 mmHg 67%
    23:00 +29°C° 0 mm 6 m/s 756 mmHg 71%

    20 August, Luni

    Timp Temperatura Precipitaţii Vânt Presiune Umiditate
    00:00 +28°C° 0 mm 6 m/s 756 mmHg 76%
    01:00 +28°C° 0 mm 6 m/s 755 mmHg 80%
    02:00 +27°C° 0 mm 6 m/s 756 mmHg 80%
    03:00 +27°C° 0 mm 6 m/s 756 mmHg 80%
    04:00 +27°C° 0 mm 6 m/s 756 mmHg 80%
    05:00 +28°C° 0 mm 6 m/s 756 mmHg 73%
    06:00 +29°C° 0 mm 6 m/s 756 mmHg 67%
    07:00 +30°C° 0 mm 6 m/s 757 mmHg 60%
    08:00 +34°C° 0 mm 7 m/s 757 mmHg 53%
    09:00 +36°C° 0 mm 7 m/s 757 mmHg 46%
    10:00 +39°C° 0 mm 7 m/s 757 mmHg 38%
    11:00 +40°C° 0 mm 8 m/s 756 mmHg 36%
    12:00 +41°C° 0 mm 8 m/s 755 mmHg 34%
    13:00 +43°C° 0 mm 9 m/s 755 mmHg 32%
    14:00 +43°C° 0 mm 9 m/s 754 mmHg 33%
    15:00 +42°C° 0 mm 9 m/s 754 mmHg 34%
    16:00 +40°C° 0 mm 9 m/s 754 mmHg 35%
    17:00 +38°C° 0 mm 9 m/s 754 mmHg 43%
    18:00 +35°C° 0 mm 8 m/s 755 mmHg 51%
    19:00 +33°C° 0 mm 8 m/s 756 mmHg 59%
    20:00 +32°C° 0 mm 8 m/s 756 mmHg 66%
    21:00 +30°C° 0 mm 7 m/s 757 mmHg 73%
    22:00 +28°C° 0 mm 7 m/s 757 mmHg 81%
    23:00 +28°C° 0 mm 7 m/s 757 mmHg 82%

    21 August, Marţi

    Timp Temperatura Precipitaţii Vânt Presiune Umiditate
    00:00 +28°C° 0 mm 7 m/s 756 mmHg 83%
    01:00 +28°C° 0 mm 7 m/s 756 mmHg 84%
    02:00 +28°C° 0 mm 7 m/s 756 mmHg 84%
    03:00 +28°C° 0 mm 6 m/s 756 mmHg 83%
    04:00 +28°C° 0 mm 6 m/s 756 mmHg 83%
    05:00 +29°C° 0 mm 6 m/s 757 mmHg 80%
    06:00 +29°C° 0 mm 6 m/s 757 mmHg 77%
    07:00 +30°C° 0 mm 6 m/s 757 mmHg 75%
    08:00 +33°C° 0 mm 7 m/s 757 mmHg 64%
    09:00 +35°C° 0 mm 7 m/s 757 mmHg 54%
    10:00 +38°C° 0 mm 7 m/s 757 mmHg 44%
    11:00 +39°C° 0 mm 8 m/s 756 mmHg 41%
    12:00 +40°C° 0 mm 8 m/s 755 mmHg 37%
    13:00 +43°C° 0 mm 9 m/s 755 mmHg 34%
    14:00 +42°C° 0 mm 9 m/s 754 mmHg 36%
    15:00 +40°C° 0 mm 9 m/s 754 mmHg 39%
    16:00 +39°C° 0 mm 9 m/s 754 mmHg 41%
    17:00 +37°C° 0 mm 9 m/s 754 mmHg 51%
    18:00 +34°C° 0 mm 8 m/s 755 mmHg 60%
    19:00 +32°C° 0 mm 8 m/s 755 mmHg 69%
    20:00 +31°C° 0 mm 8 m/s 756 mmHg 74%
    21:00 +29°C° 0 mm 8 m/s 756 mmHg 78%
    22:00 +29°C° 0 mm 7 m/s 757 mmHg 82%
    23:00 +29°C° 0 mm 7 m/s 756 mmHg 82%

    22 August, Miercuri

    Timp Temperatura Precipitaţii Vânt Presiune Umiditate
    00:00 +29°C° 0 mm 7 m/s 756 mmHg 82%
    01:00 +29°C° 0 mm 7 m/s 756 mmHg 82%
    02:00 +29°C° 0,1 mm 7 m/s 755 mmHg 82%
    03:00 +28°C° 0,1 mm 7 m/s 755 mmHg 82%
    04:00 +28°C° 0,1 mm 7 m/s 755 mmHg 82%
    05:00 +29°C° 0,1 mm 7 m/s 756 mmHg 79%
    06:00 +29°C° 0,1 mm 7 m/s 756 mmHg 76%
    07:00 +30°C° 0,1 mm 7 m/s 756 mmHg 72%
    08:00 +33°C° 0,1 mm 7 m/s 756 mmHg 63%
    09:00 +35°C° 0,1 mm 7 m/s 757 mmHg 53%
    10:00 +38°C° 0,1 mm 8 m/s 757 mmHg 44%
    11:00 +39°C° 0 mm 8 m/s 756 mmHg 41%
    12:00 +40°C° 0 mm 8 m/s 755 mmHg 39%
    13:00 +41°C° 0 mm 8 m/s 755 mmHg 37%
    14:00 +40°C° 0 mm 9 m/s 754 mmHg 40%
    15:00 +39°C° 0 mm 9 m/s 754 mmHg 43%
    16:00 +38°C° 0 mm 9 m/s 754 mmHg 46%
    17:00 +35°C° 0 mm 8 m/s 754 mmHg 54%
    18:00 +33°C° 0 mm 8 m/s 755 mmHg 62%
    19:00 +32°C° 0 mm 8 m/s 755 mmHg 70%
    20:00 +31°C° 0 mm 8 m/s 756 mmHg 74%
    21:00 +29°C° 0 mm 7 m/s 756 mmHg 78%
    22:00 +29°C° 0 mm 7 m/s 757 mmHg 82%
    23:00 +29°C° 0 mm 7 m/s 756 mmHg 82%
    Arată mai mult